Location: Exeidioux
(45.6312°N, 1.6819°E)
Time: 14:02:26
(UTC+00:00)

Cosmos 1943 Rocket - Pass Details

Date: 03 March 2021
Orbit: 811 x 844 km, 71.0° (Epoch: 15 April)

Event Time Altitude Azimuth Distance (km) Brightness Sun altitude
Rises 20:43:29 0° 341° (NNW) 3,414 5.9 -31.6°
Reaches altitude 10° 20:46:32 10° 357° (N) 2,475 4.9 -32.1°
Enters shadow 20:48:31 17° 14° (NNE) 2,013 4.2 -32.4°
